TimeCDT,TemperatureF,Dew PointF,Humidity,Sea Level PressureIn,VisibilityMPH,Wind Direction,Wind SpeedMPH,Gust SpeedMPH,PrecipitationIn,Events,Conditions,WindDirDegrees,DateUTC
12:55 AM,32.0,30.2,93,29.95,10.0,West,6.9,-,0.04,,Mostly Cloudy,270,2012-10-26 05:55:00
1:15 AM,32.0,28.4,87,29.96,10.0,West,5.8,-,0.01,,Scattered Clouds,260,2012-10-26 06:15:00
1:35 AM,32.0,30.2,93,29.97,10.0,West,9.2,-,0.02,,Scattered Clouds,270,2012-10-26 06:35:00
1:55 AM,32.0,30.2,93,29.97,10.0,West,6.9,17.3,0.04,,Overcast,270,2012-10-26 06:55:00
2:15 AM,32.0,30.2,93,29.98,10.0,West,9.2,16.1,0.01,,Overcast,270,2012-10-26 07:15:00
2:35 AM,32.0,28.4,87,29.99,10.0,West,10.4,-,0.02,,Overcast,260,2012-10-26 07:35:00
2:55 AM,32.0,28.4,87,30.01,10.0,West,9.2,20.7,0.04,,Overcast,280,2012-10-26 07:55:00
3:15 AM,32.0,28.4,87,30.01,10.0,West,8.1,-,0.01,,Overcast,270,2012-10-26 08:15:00
3:35 AM,32.0,28.4,87,30.01,10.0,West,12.7,19.6,0.02,,Overcast,270,2012-10-26 08:35:00
3:55 AM,32.0,28.4,87,30.02,10.0,West,8.1,16.1,0.03,,Overcast,270,2012-10-26 08:55:00
4:15 AM,32.0,28.4,87,30.03,10.0,West,10.4,16.1,0.01,,Overcast,270,2012-10-26 09:15:00
4:35 AM,32.0,28.4,87,30.03,10.0,West,8.1,-,0.02,,Overcast,280,2012-10-26 09:35:00
4:55 AM,32.0,28.4,87,30.04,10.0,West,11.5,17.3,0.02,,Mostly Cloudy,270,2012-10-26 09:55:00
5:15 AM,32.0,28.4,87,30.04,10.0,West,8.1,18.4,0.01,,Overcast,260,2012-10-26 10:15:00
5:35 AM,32.0,28.4,87,30.05,10.0,West,10.4,-,0.01,,Overcast,270,2012-10-26 10:35:00
5:55 AM,32.0,28.4,87,30.06,10.0,West,9.2,16.1,0.01,,Overcast,270,2012-10-26 10:55:00
6:15 AM,32.0,28.4,87,30.06,10.0,West,6.9,-,N/A,,Overcast,270,2012-10-26 11:15:00
6:35 AM,32.0,28.4,87,30.07,10.0,West,5.8,-,N/A,,Overcast,260,2012-10-26 11:35:00
6:55 AM,32.0,28.4,87,30.07,10.0,West,8.1,-,N/A,,Overcast,270,2012-10-26 11:55:00
7:15 AM,32.0,28.4,87,30.09,10.0,West,5.8,-,N/A,,Overcast,270,2012-10-26 12:15:00
7:35 AM,32.0,28.4,87,30.09,10.0,West,9.2,-,N/A,,Overcast,260,2012-10-26 12:35:00
7:55 AM,32.0,28.4,87,30.10,10.0,West,5.8,-,N/A,,Overcast,260,2012-10-26 12:55:00
8:15 AM,32.0,28.4,87,30.11,10.0,WSW,6.9,-,N/A,,Overcast,250,2012-10-26 13:15:00
8:35 AM,33.8,28.4,81,30.12,10.0,West,8.1,-,N/A,,Overcast,260,2012-10-26 13:35:00
8:55 AM,32.0,28.4,87,30.13,10.0,WSW,4.6,-,N/A,,Overcast,250,2012-10-26 13:55:00
9:15 AM,33.8,28.4,81,30.15,10.0,WSW,8.1,-,N/A,,Overcast,250,2012-10-26 14:15:00
9:35 AM,33.8,28.4,81,30.15,10.0,West,8.1,16.1,N/A,,Overcast,260,2012-10-26 14:35:00
9:55 AM,33.8,28.4,81,30.17,10.0,WSW,11.5,-,N/A,,Overcast,250,2012-10-26 14:55:00
10:15 AM,33.8,28.4,81,30.17,10.0,West,9.2,-,N/A,,Overcast,260,2012-10-26 15:15:00
10:35 AM,33.8,26.6,75,30.19,10.0,West,11.5,24.2,N/A,,Overcast,270,2012-10-26 15:35:00
10:55 AM,33.8,26.6,75,30.20,10.0,West,9.2,19.6,N/A,,Overcast,270,2012-10-26 15:55:00
11:15 AM,33.8,26.6,75,30.20,10.0,West,11.5,24.2,N/A,,Overcast,270,2012-10-26 16:15:00
11:35 AM,33.8,26.6,75,30.20,10.0,West,15.0,21.9,N/A,,Overcast,280,2012-10-26 16:35:00
11:55 AM,33.8,26.6,75,30.21,10.0,West,9.2,18.4,N/A,,Overcast,260,2012-10-26 16:55:00
12:15 PM,33.8,26.6,75,30.21,10.0,West,9.2,18.4,N/A,,Overcast,270,2012-10-26 17:15:00
12:35 PM,33.8,24.8,70,30.21,10.0,West,9.2,21.9,N/A,,Overcast,270,2012-10-26 17:35:00
12:55 PM,35.6,26.6,70,30.21,10.0,West,8.1,16.1,N/A,,Overcast,280,2012-10-26 17:55:00
1:15 PM,33.8,24.8,70,30.21,10.0,West,11.5,17.3,N/A,,Overcast,280,2012-10-26 18:15:00
1:35 PM,35.6,24.8,65,30.21,10.0,West,8.1,-,N/A,,Overcast,270,2012-10-26 18:35:00
1:55 PM,35.6,26.6,70,30.22,10.0,West,9.2,-,N/A,,Overcast,280,2012-10-26 18:55:00
2:15 PM,35.6,23.0,60,30.22,10.0,West,9.2,17.3,N/A,,Overcast,270,2012-10-26 19:15:00
2:35 PM,35.6,23.0,60,30.22,10.0,West,11.5,17.3,N/A,,Overcast,270,2012-10-26 19:35:00
3:15 PM,35.6,23.0,60,30.21,10.0,West,6.9,16.1,N/A,,Overcast,280,2012-10-26 20:15:00
3:35 PM,35.6,23.0,60,30.21,10.0,WNW,10.4,16.1,N/A,,Mostly Cloudy,300,2012-10-26 20:35:00
3:55 PM,35.6,23.0,60,30.22,10.0,WSW,9.2,-,N/A,,Overcast,250,2012-10-26 20:55:00
4:15 PM,35.6,23.0,60,30.21,10.0,WNW,8.1,-,N/A,,Overcast,290,2012-10-26 21:15:00
4:35 PM,35.6,23.0,60,30.22,10.0,West,9.2,16.1,N/A,,Overcast,260,2012-10-26 21:35:00
4:55 PM,35.6,21.2,56,30.22,10.0,West,8.1,-,N/A,,Overcast,280,2012-10-26 21:55:00
5:15 PM,35.6,23.0,60,30.21,10.0,West,6.9,-,N/A,,Overcast,270,2012-10-26 22:15:00
5:35 PM,35.6,23.0,60,30.21,10.0,West,8.1,-,N/A,,Overcast,260,2012-10-26 22:35:00
5:55 PM,35.6,23.0,60,30.22,10.0,West,5.8,-,N/A,,Overcast,270,2012-10-26 22:55:00
6:15 PM,35.6,23.0,60,30.22,10.0,West,5.8,-,N/A,,Overcast,260,2012-10-26 23:15:00
6:35 PM,33.8,23.0,65,30.23,10.0,WSW,5.8,-,N/A,,Overcast,250,2012-10-26 23:35:00
6:55 PM,33.8,21.2,60,30.24,10.0,West,8.1,-,N/A,,Overcast,280,2012-10-26 23:55:00
7:15 PM,33.8,21.2,60,30.25,10.0,WNW,4.6,-,N/A,,Overcast,290,2012-10-27 00:15:00
7:35 PM,33.8,21.2,60,30.25,10.0,West,4.6,-,N/A,,Overcast,280,2012-10-27 00:35:00
7:55 PM,33.8,21.2,60,30.25,10.0,West,4.6,-,N/A,,Overcast,260,2012-10-27 00:55:00
8:15 PM,33.8,23.0,65,30.26,10.0,WSW,4.6,-,N/A,,Overcast,250,2012-10-27 01:15:00
8:35 PM,33.8,23.0,65,30.26,10.0,West,4.6,-,N/A,,Overcast,260,2012-10-27 01:35:00
8:55 PM,33.8,21.2,60,30.26,10.0,West,6.9,-,N/A,,Overcast,270,2012-10-27 01:55:00
9:35 PM,33.8,21.2,60,30.27,10.0,WSW,4.6,-,N/A,,Overcast,250,2012-10-27 02:35:00
9:55 PM,33.8,21.2,60,30.27,10.0,West,6.9,-,N/A,,Overcast,270,2012-10-27 02:55:00
10:15 PM,32.0,21.2,64,30.27,10.0,West,4.6,-,N/A,,Overcast,260,2012-10-27 03:15:00
10:35 PM,32.0,19.4,60,30.27,10.0,West,3.5,-,N/A,,Overcast,260,2012-10-27 03:35:00
10:55 PM,32.0,19.4,60,30.26,10.0,West,3.5,-,N/A,,Overcast,260,2012-10-27 03:55:00
11:15 PM,32.0,19.4,60,30.26,10.0,WSW,3.5,-,N/A,,Overcast,250,2012-10-27 04:15:00
11:35 PM,32.0,19.4,60,30.26,10.0,Calm,Calm,-,N/A,,Overcast,0,2012-10-27 04:35:00